Theta_e
293 297 297 298 298 299 293 292 291 297 307 312 316 317 318 320 324 319 319 318 318 319 319 320 323 331 336 337 339 341 342 338 342 344 344 341 346 351 353 352 351 350 346 347
291 298 297 297 301 299 302 307 307 310 307 313 314 318 318 319 318 316 315 316 316 317 318 319 319 318 326 327 329 334 335 335 340 341 340 339 340 342 347 350 349 349 347 346
288 294 296 293 298 300 302 305 307 303 305 308 305 309 312 313 314 315 315 314 313 313 314 315 316 318 317 321 325 324 327 330 334 338 337 336 336 336 338 342 348 347 347 347
288 291 286 296 303 306 303 305 305 305 305 306 307 309 309 310 310 311 312 313 313 314 315 316 317 318 318 319 319 320 323 326 328 334 335 335 333 334 334 337 343 344 344 343
289 287 291 298 301 300 299 299 305 305 307 308 310 309 308 313 313 312 312 313 314 315 316 316 316 317 318 318 317 318 319 320 323 327 333 332 331 332 331 332 336 340 340 337
289 287 287 295 305 307 303 294 307 307 306 307 306 299 304 310 312 314 315 314 315 316 317 317 317 317 317 317 317 317 319 321 323 326 330 331 330 329 327 328 330 335 337 337
290 289 293 302 306 306 293 294 307 307 306 305 303 305 307 311 312 313 314 315 315 315 315 316 316 316 315 316 316 319 321 322 323 324 326 329 330 328 324 323 324 327 334 339
291 289 290 305 305 296 300 303 307 307 307 306 307 309 310 311 311 312 312 314 315 314 314 315 316 314 315 315 319 319 320 321 323 323 324 326 328 328 327 324 321 322 323 327
293 293 299 304 304 307 306 306 307 307 309 309 309 308 309 309 310 311 313 314 315 315 316 316 316 316 315 317 318 319 319 320 321 322 324 325 323 324 324 324 321 321 321 323
295 301 303 306 307 308 308 306 308 308 309 309 308 308 308 310 310 311 312 314 316 314 314 315 316 316 316 318 319 318 318 320 321 321 321 322 321 324 324 324 325 325 325 325
298 302 304 307 307 307 308 309 310 310 310 310 309 309 309 310 310 311 312 313 314 314 315 315 316 316 318 319 318 318 319 320 320 321 321 321 320 322 323 325 325 326 330 333
296 303 302 303 308 310 308 308 310 309 310 313 312 311 311 310 310 311 312 313 313 314 314 315 317 317 318 319 318 317 318 319 320 320 321 321 319 319 311 311 309 306 306 316
303 305 306 307 309 310 308 310 312 313 312 311 312 312 311 311 311 312 311 311 312 312 314 316 316 316 318 318 316 315 316 318 319 318 321 321 318 318 317 317 307 305 303 302
307 306 305 306 305 309 312 314 314 314 313 313 312 312 311 310 311 310 310 312 312 313 314 314 315 315 317 317 316 316 316 314 318 320 321 321 319 319 318 317 317 319 308 309
306 307 306 308 310 311 313 313 311 311 311 310 311 310 310 309 310 311 314 314 315 315 315 315 315 314 318 319 319 319 319 320 320 320 321 320 321 320 319 318 318 319 318 310
307 309 310 309 309 310 309 309 307 307 308 309 308 310 312 313 313 314 315 316 315 314 316 316 316 318 317 318 318 318 319 320 320 320 321 320 320 318 317 317 317 319 320 322
305 305 306 305 305 305 305 306 308 309 310 310 310 311 311 312 313 314 313 315 315 317 319 315 310 312 312 318 316 316 319 320 322 321 321 320 319 319 319 318 317 318 321 321
310 308 306 303 304 304 307 308 308 307 306 308 308 309 308 307 307 308 309 311 313 313 312 311 308 310 314 314 314 315 317 318 320 320 320 320 319 319 318 317 317 317 319 320
310 308 307 307 305 305 306 306 306 307 306 306 306 305 306 306 306 306 308 308 308 305 306 308 310 311 310 311 313 313 313 315 320 319 320 318 318 316 316 316 316 318 319 320
309 308 307 305 306 305 303 304 305 304 305 305 304 303 302 303 304 304 306 304 306 305 306 306 308 307 307 308 312 312 313 316 316 318 318 318 316 316 316 312 317 318 319 322
306 306 305 304 303 303 303 303 302 301 304 303 302 302 301 303 303 304 302 301 303 304 305 306 305 305 307 308 311 312 314 317 316 317 317 317 317 316 317 317 318 318 319 321
304 303 303 302 300 300 302 301 301 301 303 304 303 302 301 301 302 302 303 301 303 305 304 304 304 306 306 308 307 307 308 313 318 317 315 316 315 315 316 317 318 321 323 324
303 302 301 300 299 299 300 300 299 299 302 303 302 302 301 301 302 299 298 302 303 303 303 303 304 305 305 303 303 304 304 304 305 306 310 316 313 314 318 322 321 320 322 323
302 301 300 301 300 299 298 298 298 298 299 302 303 303 301 299 300 302 303 303 303 303 303 303 303 303 302 301 300 301 301 300 301 302 304 302 309 310 314 317 317 315 318 316
302 301 300 300 300 299 299 299 297 298 297 298 300 302 302 302 301 302 303 302 303 302 301 303 303 302 300 299 299 298 298 299 298 299 300 300 301 303 304 307 314 314 320 321
301 301 300 300 301 301 301 299 296 296 295 296 296 298 301 302 303 303 303 302 303 302 301 301 301 301 300 298 297 296 296 296 296 297 297 297 298 299 299 300 303 308 309 311
302 301 301 301 302 303 302 300 296 295 296 295 294 296 296 298 299 300 301 300 300 301 301 301 300 300 299 298 297 296 295 295 294 294 295 294 295 296 296 297 296 297 300 301
Wind_Speed
4 4 3 4 4 7 4 5 6 7 6 4 6 6 5 5 2 6 5 5 4 4 2 3 4 3 4 4 6 6 7 6 5 5 7 8 10 11 12 13 14 15 13 13
1 3 2 1 7 4 4 5 6 11 6 3 2 3 2 4 3 3 4 5 4 5 5 2 1 3 4 4 5 5 6 6 6 6 4 5 5 7 8 14 15 13 14 15
4 4 5 5 7 5 4 5 6 7 4 4 3 5 4 5 6 6 7 7 8 7 6 1 5 5 5 4 5 5 6 7 6 6 5 5 7 5 6 6 9 10 10 10
3 3 2 6 1 9 12 9 8 9 6 3 8 5 7 6 6 6 6 7 7 6 7 7 6 5 2 4 4 5 7 8 7 6 7 5 5 6 5 6 7 8 8 13
4 3 2 2 3 3 3 4 4 7 4 4 6 3 1 3 3 3 2 3 4 5 5 5 6 6 5 7 4 4 6 7 7 7 6 7 6 5 5 5 6 7 6 12
3 4 6 5 3 4 5 1 2 5 5 4 4 0 6 4 5 8 8 6 7 7 5 5 8 7 6 7 7 8 8 7 7 7 7 6 6 6 4 4 5 4 3 6
3 3 4 5 3 4 3 7 6 5 5 5 4 7 5 4 7 6 7 8 7 7 8 8 8 6 7 8 8 9 8 9 6 6 7 7 7 5 5 5 4 6 5 6
3 4 4 1 3 2 5 1 4 3 3 3 5 5 6 8 8 8 8 8 8 7 8 8 8 6 8 8 10 8 8 8 11 9 7 7 8 6 6 6 5 6 5 6
5 5 4 4 5 2 3 4 2 2 5 7 6 6 8 8 9 8 9 9 8 11 14 9 7 6 7 9 8 8 7 10 12 11 10 8 6 6 5 6 5 5 5 5
4 4 3 4 3 3 1 1 3 3 4 3 6 8 8 8 8 7 7 10 11 11 11 12 8 7 8 9 8 7 8 12 11 10 12 10 5 5 6 5 5 5 6 7
2 3 3 4 1 2 1 3 4 5 4 6 6 8 7 7 8 7 7 8 8 10 13 14 9 8 10 9 6 8 10 10 11 9 11 11 7 7 6 7 8 5 7 7
6 6 5 4 4 5 4 4 5 5 5 6 7 9 7 6 6 6 9 10 10 12 13 14 14 11 11 8 6 8 10 10 9 9 8 8 7 8 9 12 11 9 10 7
4 4 4 4 5 4 5 6 5 6 7 7 7 4 5 7 5 10 10 10 11 12 13 14 13 13 12 10 8 9 10 12 9 9 9 8 6 7 8 5 13 10 13 11
4 3 3 2 4 6 5 7 7 7 7 5 4 5 7 9 10 9 10 11 11 12 12 12 13 13 13 11 9 10 11 15 11 10 9 8 7 8 6 6 5 5 11 13
2 1 3 4 4 6 5 6 8 8 6 7 6 9 8 9 11 14 13 12 12 12 13 12 11 13 11 10 12 14 12 9 10 10 9 9 8 7 7 7 6 7 3 2
2 4 5 4 6 7 7 9 9 10 10 8 8 11 12 12 12 13 13 12 10 11 14 12 11 9 12 12 13 13 12 18 17 10 9 7 7 7 7 7 6 6 5 7
3 5 4 4 6 7 7 8 9 10 10 11 12 13 12 12 12 10 11 12 13 11 9 6 12 13 13 12 13 11 10 10 13 9 9 8 8 8 8 6 6 6 7 7
6 5 4 2 5 6 10 10 9 11 11 13 12 12 10 11 11 12 12 12 11 8 8 10 13 14 14 13 13 11 10 9 9 9 7 7 8 7 6 6 6 7 6 6
6 5 4 4 5 6 7 8 9 11 11 12 12 11 11 11 11 12 12 11 11 10 11 13 22 19 14 16 18 11 10 11 9 8 7 7 6 5 5 6 6 6 6 5
5 4 4 4 4 5 6 8 9 10 11 11 12 11 12 12 12 12 10 10 7 10 14 15 16 13 15 17 21 11 12 11 10 6 6 5 5 6 5 8 8 7 7 6
6 5 4 5 5 6 6 6 7 8 10 10 11 11 11 11 11 11 11 8 12 13 16 19 12 10 11 16 14 9 10 10 8 6 5 5 5 6 6 6 7 7 8 5
4 4 3 3 5 6 7 6 6 7 9 10 10 11 11 11 11 9 8 9 9 18 12 9 10 20 15 19 9 9 10 12 8 5 4 3 4 4 5 6 7 6 6 5
4 3 1 2 3 5 6 6 7 7 8 10 11 12 10 8 8 9 9 12 10 16 10 9 20 24 22 10 9 9 9 9 8 9 9 7 4 5 6 6 5 4 4 4
5 5 3 3 3 3 6 7 7 7 6 7 10 10 9 8 7 7 8 12 18 17 12 15 19 24 19 9 9 9 9 9 8 7 7 9 7 7 7 7 5 5 4 2
6 5 4 4 3 4 3 5 6 7 7 6 9 8 8 7 5 8 8 9 17 14 11 19 24 23 10 10 10 10 9 8 9 8 7 6 7 8 8 7 6 7 5 3
6 5 4 6 4 3 2 1 3 4 4 5 5 5 6 6 6 7 8 11 10 13 10 10 11 12 11 11 11 11 9 9 9 8 8 7 7 7 8 8 8 6 6 6
3 4 3 4 4 4 3 4 1 2 3 4 4 5 5 6 7 8 9 8 9 9 10 10 11 14 12 12 11 10 10 9 9 8 7 7 7 7 8 8 8 8 8 8
Wind_Direction
216 258 271 250 299 311 208 216 166 188 142 191 175 169 162 145 148 130 135 132 117 107 128 139 141 121 143 187 221 239 241 248 287 292 289 260 266 251 237 227 224 220 216 215
270 233 305 302 339 24 74 117 70 114 99 183 180 129 152 174 193 70 61 78 133 163 165 196 159 171 212 233 236 231 267 285 305 316 322 316 321 343 322 280 239 215 212 214
258 334 346 10 332 341 74 26 126 138 187 142 116 81 89 70 64 38 12 4 5 8 355 283 203 232 285 280 287 286 279 288 299 299 305 322 322 342 347 276 264 244 223 217
193 18 65 248 13 75 82 52 56 73 66 83 110 110 80 72 83 49 25 8 354 342 330 325 334 333 278 233 256 266 279 294 300 290 283 282 281 294 288 279 290 183 122 40
124 144 299 261 305 356 104 357 359 107 76 73 153 111 39 120 124 153 206 254 256 263 271 282 294 297 308 310 288 271 261 254 272 275 262 269 265 276 288 288 300 322 76 149
128 141 200 227 216 212 120 277 210 130 125 108 126 92 256 221 221 231 222 216 232 251 240 243 266 259 281 276 291 291 283 270 260 265 253 257 251 249 231 247 275 297 173 183
147 170 292 248 284 148 149 236 174 180 174 176 196 207 231 288 289 262 258 266 258 244 239 250 258 247 243 250 259 255 276 280 261 247 260 248 252 205 237 235 237 260 234 212
97 99 242 350 25 159 207 100 160 177 184 239 237 260 254 261 263 280 283 285 281 270 251 252 249 231 244 245 254 262 265 269 279 272 260 259 232 237 228 231 217 237 242 249
139 212 262 325 115 105 127 142 215 232 236 239 247 261 274 271 279 278 278 279 280 280 287 279 261 236 242 255 258 262 268 272 273 275 276 255 236 238 219 228 213 219 222 228
88 321 78 85 53 75 93 245 280 264 277 254 251 269 263 275 277 276 277 283 287 284 276 275 267 257 243 264 263 260 262 275 274 281 282 276 247 231 232 213 221 205 222 243
52 280 1 320 187 211 289 296 295 298 261 266 285 284 263 263 277 282 283 288 289 285 288 280 273 263 267 262 251 259 269 264 262 263 269 275 253 240 233 226 212 201 221 228
214 204 169 220 215 206 239 255 272 230 268 271 250 260 277 283 278 272 288 297 294 290 287 288 286 277 265 270 254 254 267 268 262 264 261 261 258 270 238 235 248 239 263 237
181 181 202 265 288 348 316 317 309 305 286 276 284 280 288 285 281 296 293 288 286 289 292 291 288 280 282 276 266 254 262 268 265 258 258 256 249 250 266 273 238 240 235 236
67 86 351 346 278 310 306 308 310 294 287 294 301 305 294 297 301 296 288 281 285 286 287 284 284 281 282 285 276 265 261 257 263 262 256 251 242 243 237 236 245 249 232 222
82 182 196 278 323 341 342 332 329 320 320 318 307 299 296 295 297 300 296 293 293 293 291 289 287 286 295 290 285 279 271 263 256 255 253 243 245 236 231 234 234 241 227 228
61 56 27 28 354 344 341 338 327 315 310 294 298 304 305 300 297 297 296 298 300 296 295 289 295 318 316 305 301 290 280 261 247 253 252 239 238 232 231 236 231 237 232 231
28 351 357 351 351 335 324 311 306 309 320 319 319 318 314 309 302 314 325 318 305 308 326 355 329 322 309 302 308 306 291 275 257 251 246 238 232 229 230 226 225 235 231 217
103 100 80 35 330 331 341 343 336 327 326 322 321 317 328 325 319 319 313 312 313 303 324 339 322 312 308 309 304 297 293 287 269 259 245 233 229 228 222 219 226 235 241 228
94 94 61 39 9 352 337 328 330 330 329 328 326 327 321 321 318 318 316 322 318 339 330 327 319 320 315 310 316 306 297 296 280 265 245 233 229 220 219 218 227 232 236 224
99 88 66 41 15 349 332 337 333 337 333 336 334 335 334 331 329 324 327 323 342 327 326 320 325 321 317 312 314 304 294 293 285 262 238 229 222 233 225 226 234 238 236 228
88 68 58 37 356 337 347 337 336 335 336 342 339 336 334 330 336 334 333 337 342 331 329 328 329 324 322 323 320 308 308 298 285 275 259 246 240 239 233 230 238 239 242 224
115 102 72 21 11 345 343 337 333 324 331 339 341 343 344 343 340 341 334 339 330 338 334 332 332 341 340 343 332 338 341 345 356 355 339 312 288 275 259 251 237 245 244 199
128 151 144 358 358 326 329 349 338 333 335 344 348 350 350 343 339 343 347 346 345 343 343 342 349 355 356 351 348 346 352 351 355 345 338 336 340 327 314 289 261 243 244 177
165 195 212 267 323 347 359 334 343 334 326 352 349 350 352 354 353 353 342 343 348 351 350 351 0 2 2 353 355 353 354 352 347 343 342 344 346 337 337 334 304 312 292 262
192 205 228 248 271 274 304 340 341 352 342 359 355 346 359 4 358 338 345 348 350 356 355 355 0 2 1 0 357 358 353 355 346 344 347 354 347 336 338 335 337 342 326 344
192 213 223 228 231 256 258 331 5 326 343 344 321 332 339 341 343 340 337 343 350 351 355 357 0 0 1 0 4 1 358 354 356 352 355 1 354 347 343 345 349 350 4 28
220 224 252 272 237 252 228 191 136 338 331 314 302 314 325 334 335 340 338 343 349 355 351 356 1 2 1 4 3 7 6 360 0 1 5 9 7 2 1 357 3 359 24 46